www.pogodaiklimat.ru

Погода и климат >> Архив погоды >> Украина >> Жашков


ПОГОДА в Жашкове

  • Прогноз погоды в Жашкове
  • Монитор погоды в Жашкове
  • Климат города

АРХИВ ПОГОДЫ в Жашкове

Время (UTC), дата Ветер
(напр.,м/с)
 
Видим.   Явления Облачность Т
(С)
Тd
(С)
f
(%)
Тe
(С)
Тes
(С)
Комфортность P
(гПа)
Po
(гПа)
Тmin
(С)
Tmax
(С)
R
(мм)
R24
(мм)
S
(см)
06 14.02 штиль 0 10 км 10/10 300 м
[St]
-5.9 -7.4 89 -7 -7 1020.8 1021.0 -6.1 9
09 14.02 В 1 10 км 10 баллов -4.9 -6.9 86 0.0
12 14.02 В 1 10 км 10/10 400 м
[St]
-3.6 -7.2 76 -6 -6 1021.7 1022.0
15 14.02 штиль 0 10 км 10 баллов -3.8 -7.1 78 0.0
18 14.02 В 1 16 км 10/10 420 м
[St]
-4.2 -7.2 80 -6 -6 1023.2 1023.0 -3.3
21 14.02 В 1 15 км 10 баллов -4.2 -6.8 82 0.0
00 15.02 штиль 0 15 км {снег} 10/10 400 м
[St]
-5.1 -7.2 85 -6 -6 1023.7 1024.0 0.0
03 15.02 штиль 0 15 км 10 баллов -5.6 -7.4 87 0.0
06 15.02 СВ 1 4000 м дымка 10/10 300 м
[St]
-4.0 -5.2 91 -6 -6 1024.7 1025.0 -5.6 0.0 8
09 15.02 штиль 0 4000 м слабый снег 10 баллов -2.0 -2.6 96 0.0
12 15.02 СВ 1 4000 м дымка {снег} 10/0
[As op]
-0.4 -1.3 94 -3 -2 1025.0 1025.0 1.0
15 15.02 В 1 4000 м дымка 10 баллов -0.4 -1.5 92 0.0
18 15.02 В 1 7000 м дымка 10/10 300 м
[St]
-1.0 -1.7 95 -3 -3 1027.3 1027.0 +0.4 1
21 15.02 В 1 7000 м дымка 10 баллов -1.2 -1.6 97 0.0
00 16.02 штиль 0 6000 м дымка 10/10 300 м
[St]
-1.6 -2.4 94 -3 -3 1027.8 1028.0
03 16.02 штиль 0 дымка 10 баллов 94 685.5 1000.0
06 16.02 штиль 0 4000 м дымка {снег} 10/10 300 м
[St]
-2.2 -2.5 98 -4 -4 1027.9 1028.0 -2.5 0.0 9
09 16.02 ЮВ 1 4000 м дымка 10 баллов -1.0 -2.0 93 0.0
12 16.02 ЮВ 1 4000 м дымка 10 баллов -0.2 -1.3 92 0.0
15 16.02 штиль 0 дымка 10 баллов 98 -171.3 998.7
18 16.02 штиль 0 500 м слабый снег {туман} ?/? -0.4 -0.4 100 -2 -2 1025.9 1026.0 -0.1 0.5
21 16.02 штиль 0 700 м слабый снег {туман} ?/? -0.2 -0.2 100 -2 -2 1025.6 1026.0
00 17.02 штиль 0 600 м слабый снег {туман} ?/? -0.2 -0.2 100 -2 -2 1025.1 1025.0 0.8
03 17.02 СЗ 1 900 м туман {снег} ?/? -1.0 -1.0 100 -3 -3 1024.5 1007.3
06 17.02 штиль 0 4000 м дымка {снег, туман} 8/0
[Ci fib]
-2.3 -3.2 94 -4 -3 1025.2 1025.0 -2.4 1 10
09 17.02 З 1 10 км 10/0
[As op]
-0.8 -2.7 87 -3 -2 1025.1 1025.0
12 17.02 СЗ 1 20 км 8/8 600 м
[Sc]
+1.7 -2.7 73 0 +1 1024.1 1024.0
15 17.02 З 1 20 км ясно +1.6 -0.6 85 -0 -0 1023.7 1024.0
18 17.02 З 1 20 км ясно -2.2 -4.0 87 -4 -4 1024.3 1024.0 +2.8
21 17.02 штиль 0 15 км ясно -4.5 -6.1 89 -6 -6 1023.8 1024.0
00 18.02 штиль 0 14 км ясно -5.9 -7.4 89 -7 -7 1024.1 1024.0
03 18.02 штиль 0 12 км ясно -7.1 -8.4 90 -8 -8 1023.4 1023.0
06 18.02 штиль 0 4000 м дымка 10/0
[Cs]
-6.1 -6.9 94 -7 -6 1023.7 1024.0 -7.3 9
09 18.02 З 1 20 км 10/0
[Cc]
-0.8 -4.6 75 -3 +2 1022.9 1023.0
12 18.02 ЮЗ 1 20 км 10/0
[Ac trans]
+1.6 -4.4 64 0 +2 1022.3 1022.0
15 18.02 З 1 20 км 10/0
[Ac trans]
+0.9 -4.7 66 -1 -1 1022.1 1022.0
18 18.02 З 1 н/о 9 баллов -0.5 -4.9 72 -2 -2 510.7 996.0
21 18.02 СЗ 1 15 км 10 баллов -0.8 -3.3 83 0.0
00 19.02 СЗ 2 8000 м слабый снег 10/0 330 м
[As op]
-1.8 -2.6 94 -6 -6 1023.8 1024.0 0.0
03 19.02 СЗ 2 12 км 7 баллов -3.2 -4.9 88 0.0
06 19.02 СЗ 1 10 км {снег} 10/10 600 м
[Frnb]
-4.9 -6.6 88 -7 -7 1025.6 1026.0 -5.1 0.3 9
09 19.02 СЗ 1 20 км 2 балла -2.8 -7.0 73 0.0
12 19.02 СЗ 1 20 км {снег} 9/9 800 м
[Sc]
-2.4 -7.1 70 -4 -4 1026.0 1026.0 0.0
15 19.02 З 2 20 км 7 баллов -2.0 -6.5 71 0.0
18 19.02 СЗ 1 17 км 10/10 750 м
[Sc]
-2.6 -6.3 76 -5 -5 1026.5 1027.0 -1.5 0.0
21 19.02 Ю 1 16 км 10 баллов -3.5 -6.8 78 0.0
00 20.02 З 1 15 км 3/3 600 м
[Sc]
-5.4 -7.5 85 -8 -8 1026.8 1027.0
03 20.02 штиль 0 14 км ясно -8.4 -10.3 86 -9 -9 1026.5 1027.0
06 20.02 штиль 0 10 км ясно -9.9 -11.6 87 -10 -9 1027.2 1027.0 -10.0 8
09 20.02 З 1 20 км 3/0
[Ci fib]
-3.0 -8.0 68 -5 +1 -342.5 1027.0
12 20.02 З 1 20 км ясно +0.4 -7.4 56 -1 +4 1025.4 1025.0
15 20.02 штиль 0 20 км 3/0
[Ci]
-0.2 -6.7 62 -1 -1 1024.9 1025.0
18 20.02 штиль 0 17 км ясно -4.0 -7.8 75 0.0 +1.1
21 20.02 штиль 0 16 км ясно -7.1 -10.0 80 -8 -8 1025.7 1026.0
00 21.02 штиль 0 12 км ясно -8.1 -9.2 92 0.0

 

Местоположение метеостанции Жашков (Черкасская область, Украина): широта 49.25 долгота 30.10 высота над уровнем моря 224 м.

В архиве по умолчанию представлена погода в Жашкове за последнюю неделю. Архивные данные за месяц целиком и за предыдущие месяцы, начиная с января 2011 года, Вы можете получить, выбрав интересующий диапазон дат из раскрывающегося списка и нажав кнопку "Ввод!".

Внимание! Время в таблицах - всемирное. Для получения местного времени необходимо прибавить поправку, которая в Жашкове равна 2 ч.

Смотрите также архив погоды в соседних городах и на ближайших метеорологических станциях:

Погода в Умани (Черкасская область, Украина) (54 км)
Погода в Белой Церкви (Киевская область, Украина) (56 км)
Погода в Звенигородке (Черкасская область, Украина) (61 км)
Погода в Гайсине (Винницкая область, Украина) (71 км)
Погода в Мироновке (Киевская область, Украина) (80 км)
Погода в Фастове (Киевская область, Украина) (93 км)
Погода в Гайвороне (Кировоградская область, Украина) (102 км)
Погода в Виннице (Винницкая область, Украина) (109 км)
Погода в Белополе (Винницкая область, Украина) (109 км)
Погода в Каневе (Черкасская область, Украина) (116 км)

Пояснения к столбцам:

Ветер - указаны скорость ветра в м/с - средняя за 10 мин, порывы в срок и между сроками (в фигурных скобках) и направление, откуда дует ветер: С - северный, СВ - северо-восточный, В - восточный, ЮВ - юго-восточный, Ю - южный, ЮЗ - юго-западный, З - западный, СЗ - северо-западный.
Видимость - горизонтальная дальность видимости в метрах или километрах. При видимости от 1 до 10 км при отсутствии осадков обычно наблюдается дымка, при ухудшении видимости до 1 км и менее - туман. В сухую погоду видимость может ухудшаться дымом, пылью или мглою.
Явления - указаны атмосферные явления, наблюдавшиеся в срок или в последний час перед сроком; фигурными скобками обозначены явления, наблюдавшиеся между сроками (за 1-3 часа до срока); квадратными скобками обозначены град или гололедные отложения с указанием их диаметра в мм.
Облачность - указаны через наклонную черту общая и нижняя облачность в баллах и высота нижней границы облаков в метрах; квадратными скобками обозначены формы облаков: Ci - перистые, Cs - перисто-слоистые, Cc - перисто-кучевые, Ac - высококучевые, As - высокослоистые, Sc - слоисто-кучевые, Ns - слоисто-дождевые, Cu - кучевые, Cb - кучево-дождевые. Подробнее классификацию облаков см. в Атласе облаков (PDF).
T - Температура воздуха - температура, измеренная на высоте 2 м над землей.
Td - Температура точки росы - температура, при понижении до которой содержащийся в воздухе водяной пар достигнет насыщения.
f - Относительная влажность воздуха - влажноcть воздуха, измеренная на высоте 2 м над землей.
Te - Эффективная температура - температура, которую ощущает одетый по сезону человек в тени. Характеристика душности погоды. При расчете учитывается влияние влажности воздуха и скорости ветра на теплоощущения человека.
Tes - Эффективная температура на солнце - температура, которую ощущает человек, с поправкой на солнечный нагрев. Характеристика знойности погоды. Зависит от высоты солнца над горизонтом, облачности и скорости ветра. Ночью, в пасмурную погоду, а также при ветре 12 м/с и более поправка равна нулю.
P - Атмосферное давление - приведенное к уровню моря атмосферное давление.
Po - Атмосферное давление - измеренное на уровне метеостанции атмосферное давление.
Tmin - Минимальная температура - минимум температуры воздуха на высоте 2 м над землей.
Tmax - Максимальная температура - максимум температуры воздуха на высоте 2 м над землей.
R - Количество осадков - Количество выпавших осадков за период времени, мм. При наведении курсора мыши на число - период времени, за который выпало указанное количество осадков.
R24 - Количество осадков - Количество выпавших осадков за 24 часа, мм.
S - Снежный покров - Высота снежного покрова, см. При наведении курсора мыши на число - состояние снежного покрова и степень покрытия местности в баллах.